Regional Weather Roundup
Issued by NWS

Home | Current Version | Previous Version | Graphics & Text | Print | Product List | Glossary On
Versions: 1 2 3 4 5 6 7 8 9 10 11 12 13 14 15 16 17 18 19 20 21 22 23 24 25 26 27 28 29 30 31 32 33 34 35 36 37 38 39 40 41 42 43 44 45 46 47 48 49 50
079
ASUS43 KLMK 262302
RWRKY
KENTUCKY REGIONAL WEATHER ROUNDUP
NATIONAL WEATHER SERVICE LOUISVILLE KY
700 PM EDT WED JUL 26 2017

NOTE "FAIR" INDICATES FEW OR NO CLOUDS BELOW 12,000 FEET
WITH NO SIGNIFICANT WEATHER AND/OR OBSTRUCTIONS TO VISIBILITY.

KYZ001>023-026-027-061>063-070>075-270000-
WESTERN AND SOUTH CENTRAL KENTUCKY

CITY           SKY/WX    TMP DP  RH WIND       PRES   REMARKS
PADUCAH        CLOUDY    88  75  65 S5        29.97F HX  97
HENDERSON      CLOUDY    77  72  84 NE7       30.00S THUNDER
OWENSBORO      CLOUDY    84  75  74 CALM      30.00S THUNDER HX  92
HOPKINSVILLE   CLOUDY    91  74  58 S7        30.00S HX 100
BOWLING GREEN  PTSUNNY   91  73  55 SE6       30.00F HX  99
GLASGOW        NOT AVBL
$$

KYZ024-025-028>034-038-045-046-053-270000-
NORTH CENTRAL KENTUCKY

CITY           SKY/WX    TMP DP  RH WIND       PRES   REMARKS
LOUISVILLE/SDF CLOUDY    91  73  55 SW9       30.00S HX  99
LOUISVILLE/LOU CLOUDY    90  74  59 SW6       30.01S HX  99
FORT KNOX      MOSUNNY   89  73  60 SW5       30.01S HX  96
$$

KYZ035>037-039>044-047>052-055>060-089>105-270000-
NORTHEAST KENTUCKY

CITY           SKY/WX    TMP DP  RH WIND       PRES   REMARKS
LEXINGTON      MOSUNNY   88  68  51 SW3       30.05S HX  91
COVINGTON      CLOUDY    84  69  60 CALM      30.04F
FRANKFORT      SUNNY     87  69  54 SW3       30.02F HX  91
$$

KYZ054-064>069-076>088-106>120-270000-
SOUTHEAST KENTUCKY

CITY           SKY/WX    TMP DP  RH WIND       PRES   REMARKS
JACKSON        SUNNY     86  69  56 VRB3      30.08F HX  90
LONDON         PTSUNNY   90  66  45 VRB3      30.06F HX  92
SOMERSET       SUNNY     88  64  45 W7        30.05F
MIDDLESBORO    SUNNY     88  73  61 CALM      30.07F HX  95
MONTICELLO     CLEAR     89  76  65 CALM      30.06F HX 100
$$





USA.gov is the U.S. government's official web portal to all federal, state and local government web resources and services.